This demonstration page uses our WeatherBlox Daily Observations layout. Learn more.

38.88101, -77.10428

Hourly Observations for January 15, 2020

Temp ( °F °C ) Dew Point ( °F °C ) Humidity (%) Winds ( mph kmh ) Pressure ( in mb ) Visibility ( mi km ) Precip ( " mm )
12:52 am 00:52 Cloudy with Mist and Fog 48 8.9 46 7.8 93 93 WSW 5 7 30.15 1021 5 8.04672 0 0
1:52 am 01:52 Cloudy with Mist and Fog 48 8.9 46 7.8 93 93 WNW 3 6 30.18 1022 6 9.656064 0 0
2:52 am 02:52 Cloudy with Mist and Fog 47 8.3 46 7.8 97 97 WNW 5 7 30.18 1022 5 8.04672 0 0
3:34 am 03:34 Cloudy with Mist and Fog 47 8.3 46 7.8 97 97 Calm 30.18 1022 5 8.04672 0 0
3:52 am 03:52 Cloudy with Mist and Fog 47 8.3 46 7.8 97 97 SSW 3 6 30.18 1022 2.5 4.02336 0 0
4:52 am 04:52 Cloudy with Mist and Fog 46 7.8 45 7.2 96 96 WSW 7 11 30.18 1022 2 3.218688 0 0
5:32 am 05:32 Cloudy with Mist and Fog 46 7.8 45 7.2 96 96 Calm 30.21 1023 3 4.828032 0 0
5:52 am 05:52 Cloudy with Mist and Fog 46 7.8 45 7.2 96 96 Calm 30.18 1022 3 4.828032 0 0
6:52 am 06:52 Cloudy with Mist and Fog 46 7.8 45 7.2 96 96 Calm 30.21 1023 4 6.437376 0 0
7:31 am 07:31 Cloudy with Mist and Fog 45 7.2 44 6.7 97 97 W 5 7 30.24 1024 5 8.04672 0 0
7:52 am 07:52 Mostly Cloudy with Mist and Fog 45 7.2 44 6.7 97 97 W 5 7 30.21 1023 6 9.656064 0 0
8:44 am 08:44 Partly Cloudy 47 8.3 44 6.7 90 90 Calm 30.24 1024 8 12.874752 0 0
8:52 am 08:52 Partly Cloudy 48 8.9 44 6.7 86 86 W 5 7 30.24 1024 8 12.874752 0 0
9:52 am 09:52 Mostly Sunny 49 9.4 44 6.7 83 83 SSW 7 11 30.24 1024 10 16.09344 0 0
10:52 am 10:52 Mostly Sunny 50 10 45 7.2 83 83 SSE 5 7 30.24 1024 10 16.09344 0 0
11:52 am 11:52 Mostly Sunny 51 10.6 44 6.7 77 77 SSE 5 7 30.21 1023 10 16.09344 0 0
12:52 pm 12:52 Partly Cloudy 54 12.2 43 6.1 67 67 ESE 3 6 30.15 1021 10 16.09344 0 0
1:52 pm 13:52 Mostly Cloudy 57 13.9 42 5.6 58 58 SW 7 11 30.15 1021 10 16.09344 0 0
2:52 pm 14:52 Mostly Cloudy 56 13.3 43 6.1 62 62 SSE 5 7 30.15 1021 10 16.09344 0 0
3:52 pm 15:52 Mostly Cloudy 54 12.2 44 6.7 69 69 S 9 15 30.12 1020 10 16.09344 0 0
4:52 pm 16:52 Mostly Cloudy 52 11.1 46 7.8 80 80 SSW 12 19 30.12 1020 10 16.09344 0 0
5:52 pm 17:52 Mostly Cloudy 51 10.6 45 7.2 80 80 S 6 9 30.12 1020 10 16.09344 0 0
6:52 pm 18:52 Cloudy 51 10.6 46 7.8 83 83 S 6 9 30.12 1020 10 16.09344 0 0
7:52 pm 19:52 Cloudy 50 10 46 7.8 86 86 S 7 11 30.09 1019 10 16.09344 0 0
8:52 pm 20:52 Mostly Cloudy 49 9.4 46 7.8 90 90 S 7 11 30.06 1018 10 16.09344 0 0
8:54 pm 20:54 Mostly Cloudy 49 9.4 46 7.8 90 90 S 7 11 30.09 1019 10 16.09344 0 0
9:28 pm 21:28 Mostly Cloudy 49 9.4 46 7.8 90 90 S 7 11 30.09 1019 10 16.09344 0 0
9:52 pm 21:52 Mostly Cloudy 48 8.9 45 7.2 89 89 S 6 9 30.06 1018 10 16.09344 0 0
10:52 pm 22:52 Cloudy 48 8.9 46 7.8 93 93 SSW 8 13 30.03 1017 10 16.09344 0 0
11:52 pm 23:52 Mostly Cloudy 48 8.9 46 7.8 93 93 SSW 8 13 29.97 1015 10 16.09344 0 0

Powered by AerisWeather